TIME,DELAY(SENSOR),PRES,OXYGEN,RAWTEMP,T(OPTODE),TCPHASE,FLUOR,BETA(BETA700),BETA(BETA412),BETA(BETA440),CDOM,C(CSC),ED(ED412.20),ED(ED444.00),ED(ED489.60),ED(ED554.30),LU(LU412.10),LU(LU443.90),LU(LU489.70),LU(LU554.70),COMP,TILTX,TILTY,CHECK
1366518443,5754,866.1599731445312000,33.1485290527343750,561.2114868164062000,4.4483428001403810,56.5886993408203100,55,98,100,79,81,15524,0,0,0,0,2147123026,2147770861,2147566710,2147570614,2925,3,13,43943
1366522039,5811,922.6400146484375000,36.4899787902832000,565.8469848632812000,4.3045439720153810,56.1028594970703100,55,97,98,79,82,15520,0,0,0,0,2147122742,2147770980,2147576475,2147569188,222,3,13,24375
1366525639,5812,929.9699707031250000,37.0285606384277340,566.4116210937500000,4.2870178222656250,56.0299606323242200,55,97,100,77,82,15523,0,0,0,0,2147121142,2147770752,2147574921,2147570020,72,3,13,11247
1366529239,5809,954.4699707031250000,38.7110786437988300,569.3433837890625000,4.1959629058837890,55.8032493591308600,56,99,99,78,82,15521,0,0,0,0,2147122112,2147769325,2147572736,2147567588,61,2,13,45325
1366532839,5806,953.9099731445312000,39.4807510375976560,570.3911743164062000,4.1634039878845215,55.6989517211914060,55,99,100,79,82,15522,0,0,0,0,2147122605,2147771593,2147572708,2147568768,524,2,13,2447
1366536439,5808,959.5000000000000000,39.4730911254882800,570.4249267578125000,4.1623568534851070,55.6968612670898440,54,98,100,78,81,15519,0,0,0,0,2147121124,2147768960,2147569325,2147568576,423,2,13,41372
1366540039,5810,992.8900146484375000,40.4824905395507800,572.2102050781250000,4.1068568229675290,55.5647811889648440,54,98,99,78,81,15515,0,0,0,0,2147120566,2147771958,2147570432,2147566518,496,2,13,11690
1366543639,5809,995.5599975585938000,40.1086006164550800,572.9370727539062000,4.0842528343200680,55.6283912658691400,56,97,99,78,82,15517,0,0,0,0,2147118765,2147769481,2147575451,2147569984,155,3,13,25250
1366547239,5810,998.9899902343750000,40.4730682373046900,573.0986938476562000,4.0792269706726070,55.5770187377929700,55,101,101,77,80,15518,0,0,0,0,2147122121,2147767670,2147571995,2147567286,129,2,13,35970
1366550839,5810,1000.1699829101562000,40.1816291809082000,572.8695068359375000,4.0863552093505860,55.6210403442382800,56,98,99,78,81,15516,0,0,0,0,2147122934,2147769316,2147569060,2147568530,51,2,13,52679
1366554439,5807,998.5000000000000000,40.7187004089355500,573.0546264648438000,4.0805969238281250,55.5444107055664060,54,100,101,78,82,15515,0,0,0,0,2147124571,2147770377,2147570724,2147569819,3560,2,13,25998
1366558039,5811,994.2700195312500000,40.5053482055664060,573.3632812500000000,4.0709948539733890,55.5752983093261700,55,100,100,78,81,15517,0,0,0,0,2147123867,2147772041,2147572644,2147569764,218,2,13,2599
1366561639,5811,992.7399902343750000,41.7889900207519500,574.6640014648438000,4.0305328369140625,55.4024314880371100,54,97,98,77,81,15517,0,0,0,0,2147121581,2147767076,2147571794,2147568950,295,3,13,56798
1366565239,5811,1002.1400146484375000,40.7779502868652340,574.0025024414062000,4.0511131286621090,55.5404815673828100,54,98,100,78,82,15515,0,0,0,0,2147121764,2147769819,2147571721,2147565494,452,2,13,10524
1366568839,5811,995.0599975585938000,41.6763305664062500,574.6284179687500000,4.0316410064697270,55.4189414978027340,54,98,99,77,81,15513,0,0,0,0,2147121033,2147770761,2147573677,2147566674,305,2,13,7434
1366572439,5808,990.6799926757812000,42.1881408691406250,574.9976806640625000,4.0201468467712400,55.3453598022460940,54,98,100,77,82,15513,0,0,0,0,2147124388,2147774025,2147575058,2147566555,614,2,13,33376
1366576039,5809,997.2999877929688000,42.1843605041503900,576.6018066406250000,3.9702210426330566,55.3677902221679700,55,157,99,78,82,15507,0,0,0,0,2147123949,2147771117,2147572297,2147569225,2358,2,13,39430
1366579639,5811,991.8200073242188000,42.1985092163085940,575.1375732421875000,4.0157952308654785,55.3481101989746100,55,99,101,78,83,15497,0,0,0,0,2147120630,2147769984,2147574061,2147568228,1759,2,13,18013
1366583239,5808,996.0200195312500000,42.1550483703613300,574.5415039062500000,4.0343441963195800,55.3487205505371100,55,99,100,78,81,15496,0,0,0,0,2147120118,2147779126,2147569060,2147570038,540,2,13,56105
1366586839,5809,1001.5100097656250000,42.8267288208007800,574.9722900390625000,4.0209388732910160,55.2562103271484400,55,98,100,78,81,15488,0,0,0,0,2147126445,2147769819,2147568521,2147564964,441,2,13,46792
1366590439,5809,1002.9199829101562000,42.2421913146972660,574.8718872070312000,4.0240631103515625,55.3373298645019500,54,98,100,78,82,15477,0,0,0,0,2147120365,2147769764,2147574546,2147570468,538,2,13,62358
1366594039,5812,999.7299804687500000,41.9876594543457000,575.1431884765625000,4.0156188011169430,55.3747291564941400,55,97,99,79,82,15495,0,0,0,0,2147125156,2147771584,2147570203,2147567716,98,2,13,30736
1366597639,5811,1002.0100097656250000,42.1516609191894500,574.7590942382812000,4.0275731086730960,55.3512382507324200,55,99,101,78,81,15495,0,0,0,0,2147117440,2147767369,2147573732,2147567972,400,3,13,21752
1366601239,5809,1007.0599975585938000,42.2098503112793000,574.6372070312500000,4.0313658714294430,55.3387184143066400,55,98,100,78,82,15496,0,0,0,0,2147121380,2147773458,2147571766,2147569179,95,2,13,25554
1366604839,5809,1007.6199951171875000,40.4302597045898440,573.7863159179688000,4.0578379631042480,55.5884819030761700,55,98,100,77,81,15495,0,0,0,0,2147122669,2147770386,2147575268,2147568512,2698,2,13,61604
1366608439,5811,1004.9899902343750000,41.4818305969238300,573.9697265625000000,4.0521321296691895,55.4372482299804700,55,100,101,78,82,15496,0,0,0,0,2147123556,2147774811,2147570925,2147570276,3581,2,13,49561
1366612039,5813,1001.6099853515625000,39.9076690673828100,574.6691894531250000,4.0303711891174320,55.6820793151855500,54,98,99,77,81,15496,0,0,0,0,2147123657,2147769234,2147569883,2147568749,10,2,13,60476
1366615639,5813,1001.2899780273438000,41.1784210205078100,575.0869140625000000,4.0173740386962890,55.4931297302246100,55,96,100,78,81,15494,0,0,0,0,2147122633,2147769371,2147575195,2147565997,3521,2,13,59929
1366619239,5808,1001.1400146484375000,40.0588912963867200,575.3048706054688000,4.0105881690979000,55.6603012084960940,53,97,100,78,81,15496,0,0,0,0,2147121572,2147773238,2147572580,2147569490,109,2,13,64772
1366622839,5812,1003.9000244140625000,41.6027412414550800,574.5593261718750000,4.0337891578674320,55.4302101135253900,56,96,98,78,82,15494,0,0,0,0,2147122560,2147768731,2147574235,2147566939,143,2,13,4782
1366626439,5811,1004.3699951171875000,41.4836502075195300,574.7573852539062000,4.0276260375976560,55.4440917968750000,55,97,100,78,82,15480,0,0,0,0,2147122450,2147773595,2147570221,2147569956,3541,2,13,15593
1366630039,5811,1006.1799926757812000,42.1532897949218750,574.7111206054688000,4.0290679931640625,55.3491897583007800,55,97,100,76,82,15494,0,0,0,0,2147121618,2147768804,2147576009,2147568192,3524,2,13,32940
1366633639,5810,1006.3400268554688000,41.7549095153808600,574.7542724609375000,4.0277228355407715,55.4051704406738300,55,97,100,77,82,15493,0,0,0,0,2147119698,2147768393,2147570413,2147566692,3146,2,13,11941
1366637239,5810,1006.0499877929688000,42.3513603210449200,574.6755981445312000,4.0301699638366700,55.3176498413085940,54,98,100,77,80,15493,0,0,0,0,2147121545,2147773705,2147578057,2147568073,234,2,13,1612
1366640839,5812,1010.5999755859375000,42.4981613159179700,574.4998779296875000,4.0356369018554690,55.2984809875488300,55,98,99,79,81,15493,0,0,0,0,2147121371,2147769270,2147573284,2147566043,3447,2,13,23789
1366644439,5809,1010.9000244140625000,41.2352905273437500,574.3148193359375000,4.0413970947265625,55.4798202514648440,55,97,99,78,81,15491,0,0,0,0,2147119606,2147770404,2147571264,2147568932,163,2,13,45049
1366648039,5810,1008.9400024414062000,41.1741294860839840,573.6754760742188000,4.0612869262695310,55.4824409484863300,53,97,100,77,81,15488,0,0,0,0,2147119369,2147771492,2147570459,2147569718,3204,2,13,40933
1366651639,5811,1009.4799804687500000,41.0681381225585940,574.4871215820312000,4.0360369682312010,55.5038986206054700,55,97,100,78,81,15489,0,0,0,0,2147121033,2147769856,2147569837,2147567917,3485,2,13,9241
1366655239,5809,1010.9500122070312000,41.1811485290527340,573.8768920898438000,4.0550208091735840,55.4795913696289060,54,99,101,78,81,15485,0,0,0,0,2147122697,2147773339,2147569499,2147567314,254,2,13,62361
1366658839,5808,1010.5100097656250000,41.3952598571777340,573.7498779296875000,4.0589690208435060,55.4471817016601560,55,99,101,78,81,15488,0,0,0,0,2147126848,2147767168,2147570386,2147570706,454,2,13,63985
1366662355,5807,1002.1300048828125000,42.1098709106445300,575.2651977539062000,4.0118241310119630,55.3585281372070300,55,101,99,78,82,15488,0,0,0,0,2147121472,2147766637,2147575204,2147568329,129,2,13,14828
